Location: Quebec
(46.8000°N, 71.2500°W)
Time: 23:29:35
(UTC-05:00)

Vanguard 1 Rocket - Visible Passes

Search period start: 13 December 2017 00:00
Search period end: 23 December 2017 00:00
Orbit: 656 x 4222 km, 34.3° (Epoch: 13 December)

Date Brightness Start Highest point End Pass type
(mag) Time Alt. Az. Time Alt. Az. Time Alt. Az.
13 Dec 10.0 17:28:25 10° SW 17:38:52 47° SSE 17:54:09 17° E visible
13 Dec 10.3 19:52:32 10° WSW 20:06:56 53° S 20:11:26 48° SSE visible
13 Dec 11.0 22:19:14 10° W 22:28:43 31° WSW 22:28:43 31° WSW visible
14 Dec 10.0 16:18:47 10° SSW 16:27:20 36° SSE 16:42:22 10° E visible
14 Dec 10.1 18:41:43 10° WSW 18:53:53 53° S 19:04:17 32° ESE visible
14 Dec 10.5 21:07:05 10° W 21:21:34 45° SSW 21:21:34 45° SSW visible
14 Dec 11.5 23:36:22 10° W 23:38:52 14° W 23:38:52 14° W visible
15 Dec 9.9 17:31:25 10° WSW 17:41:32 48° SSE 17:57:11 15° ESE visible
15 Dec 10.3 19:55:41 10° W 20:09:33 50° S 20:14:29 45° SSE visible
15 Dec 11.0 22:22:42 10° W 22:31:47 28° WSW 22:31:47 28° WSW visible
16 Dec 9.9 16:21:37 10° SW 16:29:56 39° SSE 16:44:56 10° E visible
16 Dec 10.1 18:44:51 10° WSW 18:56:36 51° S 19:07:28 30° SE visible
16 Dec 10.6 21:10:23 10° W 21:24:46 40° SSW 21:24:46 40° SSW visible
16 Dec 11.6 23:40:58 10° W 23:42:05 11° WSW 23:42:05 11° WSW visible
17 Dec 9.9 17:34:30 10° WSW 17:44:17 49° S 18:00:31 14° ESE visible
17 Dec 10.4 19:58:56 10° W 20:12:12 46° SSW 20:17:50 40° SSE visible
17 Dec 11.1 22:26:28 10° W 22:35:09 24° WSW 22:35:09 24° WSW visible
18 Dec 9.8 16:24:35 10° SW 16:32:39 41° SSE 16:47:25 10° E visible
18 Dec 10.1 18:48:04 10° WSW 18:59:22 49° S 19:11:00 26° SE visible
18 Dec 10.8 21:13:51 10° W 21:27:54 35° SSW 21:28:20 35° SSW visible
19 Dec 9.9 17:37:40 10° WSW 17:47:07 48° S 18:04:16 11° ESE visible
19 Dec 10.5 20:02:16 10° W 20:14:52 41° SSW 20:21:36 34° SSE visible
19 Dec 11.3 22:30:45 10° W 22:38:57 20° SW 22:38:57 20° SW visible
20 Dec 9.7 16:27:40 10° SW 16:35:28 43° SSE 16:49:52 10° ESE visible
20 Dec 10.2 18:51:20 10° WSW 19:02:10 45° S 19:15:02 21° SE visible
20 Dec 10.9 21:17:34 10° W 21:30:27 29° SSW 21:32:23 28° SSW visible
21 Dec 9.9 17:40:53 10° WSW 17:49:59 45° S 18:06:52 10° ESE visible
21 Dec 10.6 20:05:45 10° W 20:17:35 35° SSW 20:26:01 26° SSE visible
21 Dec 11.4 22:36:01 10° WSW 22:43:23 16° SW 22:43:23 16° SW visible
22 Dec 9.7 16:30:49 10° WSW 16:38:22 42° S 16:52:15 10° ESE visible
22 Dec 10.3 18:54:43 10° WSW 19:05:01 40° SSW 19:19:51 15° SE visible
22 Dec 11.1 21:21:41 10° WSW 21:33:02 23° SSW 21:37:15 22° SSW visible
